{"data":{"norad_id":65714,"epoch":"2026-05-25T03:35:36.310848Z","epoch_age_seconds":55889,"freshness":"FRESH","line1":"1 65714U 25214C   26145.14972582  .00001579  00000+0  21838-3 0  9999","line2":"2 65714  49.9855  55.2471 0009948 124.4560 235.7319 14.83265492 36082","mean_motion":14.83265492,"eccentricity":0.0009948,"inclination_deg":49.9855,"raan_deg":55.2471,"arg_perigee_deg":124.456,"mean_anomaly_deg":235.7319,"bstar":0.00021838,"rev_number":3608,"period_min":97.083091851502,"perigee_km":612.07469148796,"apogee_km":625.99626585152,"semimajor_km":6997.1724786697,"source":"CELESTRAK","updated_at":"2026-05-25T13:38:05.626702Z"}}